Location: Dannhausen
(51.8650°N, 10.1026°E)
Time: 00:39:59
(UTC+00:00)

Cosmos 2233 Rocket - Pass Details

Date: 20 August 2020
Orbit: 952 x 992 km, 82.9° (Epoch: 26 September)

Event Time Altitude Azimuth Distance (km) Brightness Sun altitude
Exits shadow 00:10:12 - 266° (W) 3,525 6.8 -25.0°
Reaches altitude 10° 00:14:32 10° 297° (WNW) 2,760 6.5 -24.8°
Maximum altitude 00:16:11 11° 312° (NW) 2,687 6.6 -24.8°
Drops below altitude 10° 00:17:50 10° 328° (NNW) 2,760 6.9 -24.7°
Sets 00:22:54 0° 3° (N) 3,706 8.3 -24.5°
